Skip Page Navigation
NASA JPL Caltech
NASA Logo - Jet Propulsion Laboratory + View the NASA Portal
+ Near-Earth Object (NEO) Program
Search JPL
JPL Home Earth Solar System Stars & Galaxies Technology
JPL Solar System Dynamics
BODIES ORBITS EPHEMERIDES TOOLS PHYSICAL DATA DISCOVERY FAQ SITE MAP
JPL Small-Body Database Browser
Search: [ help ]  
21459 Chrisrussell (1998 HS51)
Classification: Main-belt Asteroid          SPK-ID: 2021459
Ephemeris | Orbit Diagram | Orbital Elements | Physical Parameters | Discovery Circumstances ]

[ hide orbit diagram ]
Orbit Diagram
Note: Make sure you have Java enabled on your browser to see the applet. This applet is provided as a 3D orbit visualization tool. The applet was implemented using 2-body methods, and hence should not be used for determining accurate long-term trajectories (over several years or decades) or planetary encounter circumstances. For accurate long-term ephemerides, please instead use our Horizons system.
Orbit Viewer

Additional Notes: the orbits shown in the applet are color coded. The planets are white lines, and the asteroid/comet is a blue line. The bright white line indicates the portion of the orbit that is above the ecliptic plane, and the darker portion is below the ecliptic plane. Likewise for the asteroid/comet orbit, the light blue indicates the portion above the ecliptic plane, and the dark blue the portion below the ecliptic plane.

Orbit Viewer applet originally written and kindly provided by Osamu Ajiki (AstroArts), and further modified by Ron Baalke (JPL).


Orbital Elements at Epoch 2456400.5 (2013-Apr-18.0) TDB
Reference: MPO247545 (heliocentric ecliptic J2000)
 Element Value Uncertainty (1-sigma)   Units 
e 0.1319539 n/a  
a 2.2615416 n/a AU
q 1.9631224 n/a AU
i 7.06045 n/a deg
node 46.92370 n/a deg
peri 240.47887 n/a deg
M 85.42231 n/a deg
tp 2456105.7362322
(2012-Jun-27.23623220)
n/a JED
period 1242.2393683
3.40
n/a
n/a
d
yr
n 0.28979922 n/a deg/d
Q 2.5599608 n/a AU
  Orbit Determination Parameters
   # obs. used (total)      763  
   first obs. used      1950-??-??  
   last obs. used      2012-12-07  
   # oppositions      15  
   planetary ephem.      DE403  
   condition code      0  
   fit RMS      0.59  
   data source      MPC:mpn  
   producer      MPCLINUX  

Additional Information
 T_jup = 3.598 

Ephemeris | Orbit Diagram | Orbital Elements | Physical Parameters | Discovery Circumstances ]

Physical Parameter Table
Parameter Symbol Value Units Sigma Reference Notes
absolute magnitude H 14.5 mag n/a PDS3 (MPO 8756)  

21459 Chrisrussell           Discovered 1998 Apr. 30 by the Lowell Observatory Near-Earth Object Search at the Anderson Mesa Station.
Christopher T. Russell (b. 1943) is a professor of geophysics and planetary physics at the University of California, Los Angeles. Principal Investigator of the Dawn mission to (1) Ceres and (4) Vesta, Russell has wide-ranging interests that include space physics, Venus, Jupiter, Jupiter I (Io) and Mercury.
NOTE: some special characters may not display properly (any characters within {} are an attempt to place the proper accent above a character)
Reference: 20080718/MPCPages.arcLast Updated: 2008-07-18

Alternate Designations
 1998 HS51 = 1992 SL24 = 1999 VB214 = 1999 XC24 
Ephemeris | Orbit Diagram | Orbital Elements | Physical Parameters | Discovery Circumstances ]
ABOUT SSD CREDITS/AWARDS PRIVACY/COPYRIGHT GLOSSARY LINKS
FirstGov 2013-Jun-19 01:17 UT
(server date/time)  
NASA Home Page
Site Manager:   Donald K. Yeomans
Webmaster  Alan B. Chamberlin